Location: Napa Soda Springs
(38.3907°N, 122.2794°W)
Time: 06:27:34
(UTC+00:00)

Cosmos 2278 - Pass Details

Date: 29 October 2020
Orbit: 841 x 851 km, 71.1° (Epoch: 02 December)

Event Time Altitude Azimuth Distance (km) Brightness Sun altitude
Exits shadow 13:23:44 - 331° (NNW) 3,175 6.4 -14.1°
Reaches altitude 10° 13:25:38 10° 327° (NNW) 2,465 5.8 -13.7°
Maximum altitude 13:31:05 51° 253° (WSW) 1,050 3.9 -12.7°
Drops below altitude 10° 13:36:30 10° 179° (S) 2,450 6.2 -11.6°
Sets 13:38:59 0° 174° (S) 3,381 7.0 -11.1°
